• In Deutschland
  • Länderverzeichnis
  • Für 7 Tage
  • Wassertemperatur
  • Satellitenkarten
  • Wetterkarte
  • Widgets
  • user-avatar
    Anmelden

    Stündliche Wetter Monheim

    Heute, 18 Oktober, Mittwoch

    Zeit Temperatur Niederschläge Wind Luftdruck Luftfeuchtigkeit
    00:00 +15°C° 0 mm 1 m/S 759 mmHg 86%
    01:00 +15°C° 0 mm 1 m/S 759 mmHg 86%
    02:00 +14°C° 0 mm 1 m/S 758 mmHg 86%
    03:00 +14°C° 0 mm 2 m/S 758 mmHg 87%
    04:00 +14°C° 0 mm 2 m/S 758 mmHg 86%
    05:00 +13°C° 0 mm 1 m/S 757 mmHg 86%
    06:00 +13°C° 0 mm 1 m/S 757 mmHg 85%
    07:00 +14°C° 0 mm 2 m/S 757 mmHg 78%
    08:00 +16°C° 0 mm 2 m/S 757 mmHg 71%
    09:00 +17°C° 0 mm 2 m/S 757 mmHg 65%
    10:00 +18°C° 0 mm 2 m/S 757 mmHg 61%
    11:00 +20°C° 0 mm 2 m/S 756 mmHg 57%
    12:00 +21°C° 0 mm 2 m/S 756 mmHg 53%
    13:00 +21°C° 0 mm 2 m/S 756 mmHg 55%
    14:00 +22°C° 0 mm 1 m/S 756 mmHg 58%
    15:00 +22°C° 0 mm 1 m/S 755 mmHg 60%
    16:00 +21°C° 0 mm 1 m/S 755 mmHg 66%
    17:00 +19°C° 0 mm 1 m/S 756 mmHg 72%
    18:00 +16°C° 0 mm 1 m/S 756 mmHg 78%
    19:00 +16°C° 0 mm 1 m/S 756 mmHg 80%
    20:00 +16°C° 0 mm 1 m/S 756 mmHg 82%
    21:00 +15°C° 0 mm 2 m/S 756 mmHg 84%
    22:00 +15°C° 0 mm 2 m/S 756 mmHg 84%
    23:00 +14°C° 0 mm 2 m/S 756 mmHg 85%

    Morgen, 19 Oktober, Donnerstag

    Zeit Temperatur Niederschläge Wind Luftdruck Luftfeuchtigkeit
    00:00 +14°C° 0 mm 2 m/S 756 mmHg 86%
    01:00 +14°C° 0 mm 2 m/S 756 mmHg 86%
    02:00 +14°C° 0 mm 2 m/S 756 mmHg 86%
    03:00 +13°C° 0 mm 2 m/S 755 mmHg 87%
    04:00 +13°C° 0 mm 2 m/S 755 mmHg 87%
    05:00 +13°C° 0 mm 2 m/S 755 mmHg 86%
    06:00 +13°C° 0 mm 2 m/S 755 mmHg 86%
    07:00 +14°C° 0 mm 2 m/S 755 mmHg 79%
    08:00 +16°C° 0 mm 2 m/S 755 mmHg 72%
    09:00 +18°C° 0 mm 3 m/S 755 mmHg 65%
    10:00 +19°C° 0 mm 3 m/S 755 mmHg 60%
    11:00 +21°C° 0 mm 4 m/S 755 mmHg 56%
    12:00 +22°C° 0 mm 4 m/S 755 mmHg 51%
    13:00 +22°C° 0 mm 4 m/S 754 mmHg 52%
    14:00 +22°C° 0 mm 4 m/S 754 mmHg 54%
    15:00 +22°C° 0 mm 3 m/S 753 mmHg 55%
    16:00 +20°C° 0 mm 3 m/S 754 mmHg 58%
    17:00 +19°C° 0 mm 3 m/S 754 mmHg 61%
    18:00 +18°C° 0 mm 3 m/S 754 mmHg 64%
    19:00 +17°C° 0 mm 3 m/S 754 mmHg 64%
    20:00 +17°C° 0 mm 3 m/S 754 mmHg 63%
    21:00 +17°C° 0 mm 3 m/S 754 mmHg 63%
    22:00 +17°C° 0 mm 3 m/S 755 mmHg 65%
    23:00 +17°C° 0 mm 3 m/S 755 mmHg 66%

    übermorgen, 20 Oktober, Freitag

    Zeit Temperatur Niederschläge Wind Luftdruck Luftfeuchtigkeit
    00:00 +16°C° 0 mm 2 m/S 755 mmHg 67%
    01:00 +16°C° 0 mm 2 m/S 755 mmHg 68%
    02:00 +16°C° 0 mm 3 m/S 755 mmHg 68%
    03:00 +16°C° 0 mm 3 m/S 754 mmHg 69%
    04:00 +16°C° 0,1 mm 3 m/S 754 mmHg 70%
    05:00 +16°C° 0,1 mm 3 m/S 754 mmHg 70%
    06:00 +16°C° 0,1 mm 3 m/S 754 mmHg 71%
    07:00 +16°C° 0,8 mm 3 m/S 755 mmHg 73%
    08:00 +15°C° 0,8 mm 4 m/S 755 mmHg 74%
    09:00 +17°C° 0,8 mm 4 m/S 755 mmHg 76%
    10:00 +17°C° 0,8 mm 4 m/S 755 mmHg 77%
    11:00 +17°C° 0,8 mm 4 m/S 755 mmHg 78%
    12:00 +16°C° 0,8 mm 5 m/S 755 mmHg 79%
    13:00 +17°C° 0,3 mm 4 m/S 755 mmHg 79%
    14:00 +17°C° 0,3 mm 4 m/S 755 mmHg 79%
    15:00 +17°C° 0,3 mm 4 m/S 755 mmHg 79%
    16:00 +15°C° 0,2 mm 4 m/S 755 mmHg 81%
    17:00 +14°C° 0,2 mm 3 m/S 756 mmHg 83%
    18:00 +13°C° 0,2 mm 3 m/S 756 mmHg 84%
    19:00 +13°C° 0,1 mm 3 m/S 756 mmHg 85%
    20:00 +14°C° 0,1 mm 2 m/S 756 mmHg 85%
    21:00 +13°C° 0,1 mm 2 m/S 757 mmHg 86%
    22:00 +13°C° 0 mm 2 m/S 757 mmHg 86%
    23:00 +12°C° 0 mm 2 m/S 757 mmHg 86%

    21 Oktober, Samstag

    Zeit Temperatur Niederschläge Wind Luftdruck Luftfeuchtigkeit
    00:00 +12°C° 0 mm 2 m/S 756 mmHg 86%
    01:00 +11°C° 0 mm 3 m/S 756 mmHg 86%
    02:00 +11°C° 0 mm 3 m/S 756 mmHg 85%
    03:00 +11°C° 0 mm 3 m/S 756 mmHg 85%
    04:00 +12°C° 0 mm 3 m/S 755 mmHg 85%
    05:00 +12°C° 0 mm 4 m/S 755 mmHg 85%
    06:00 +13°C° 0 mm 4 m/S 755 mmHg 86%
    07:00 +14°C° 0 mm 4 m/S 755 mmHg 84%
    08:00 +15°C° 0 mm 5 m/S 754 mmHg 82%
    09:00 +16°C° 0 mm 5 m/S 754 mmHg 79%
    10:00 +16°C° 0,6 mm 5 m/S 754 mmHg 81%
    11:00 +15°C° 0,6 mm 5 m/S 754 mmHg 83%
    12:00 +15°C° 0,6 mm 4 m/S 754 mmHg 85%
    13:00 +15°C° 0,1 mm 4 m/S 754 mmHg 81%
    14:00 +15°C° 0,1 mm 5 m/S 754 mmHg 77%
    15:00 +16°C° 0,1 mm 5 m/S 754 mmHg 73%
    16:00 +15°C° 0 mm 5 m/S 755 mmHg 74%
    17:00 +14°C° 0 mm 5 m/S 755 mmHg 74%
    18:00 +13°C° 0 mm 5 m/S 755 mmHg 74%
    19:00 +13°C° 0 mm 5 m/S 755 mmHg 74%
    20:00 +12°C° 0 mm 5 m/S 755 mmHg 73%
    21:00 +12°C° 0 mm 5 m/S 755 mmHg 73%
    22:00 +12°C° 0 mm 5 m/S 755 mmHg 73%
    23:00 +12°C° 0 mm 5 m/S 755 mmHg 73%

    22 Oktober, Sonntag

    Zeit Temperatur Niederschläge Wind Luftdruck Luftfeuchtigkeit
    00:00 +10°C° 0 mm 5 m/S 755 mmHg 73%
    01:00 +10°C° 0 mm 5 m/S 755 mmHg 73%
    02:00 +10°C° 0 mm 6 m/S 755 mmHg 74%
    03:00 +10°C° 0 mm 6 m/S 755 mmHg 74%
    04:00 +10°C° 0 mm 6 m/S 755 mmHg 74%
    05:00 +10°C° 0 mm 6 m/S 755 mmHg 74%
    06:00 +10°C° 0 mm 6 m/S 755 mmHg 75%
    07:00 +10°C° 0 mm 6 m/S 755 mmHg 73%
    08:00 +10°C° 0 mm 6 m/S 756 mmHg 72%
    09:00 +11°C° 0 mm 7 m/S 756 mmHg 71%
    10:00 +11°C° 0,5 mm 6 m/S 756 mmHg 74%
    11:00 +10°C° 0,5 mm 6 m/S 757 mmHg 77%
    12:00 +10°C° 0,5 mm 5 m/S 757 mmHg 80%
    13:00 +10°C° 0,4 mm 5 m/S 758 mmHg 78%
    14:00 +10°C° 0,4 mm 5 m/S 758 mmHg 76%
    15:00 +12°C° 0,4 mm 4 m/S 759 mmHg 74%
    16:00 +11°C° 0 mm 4 m/S 759 mmHg 75%
    17:00 +10°C° 0 mm 4 m/S 760 mmHg 76%
    18:00 +9°C° 0 mm 3 m/S 761 mmHg 78%
    19:00 +9°C° 0 mm 3 m/S 761 mmHg 78%
    20:00 +8°C° 0 mm 3 m/S 761 mmHg 79%
    21:00 +8°C° 0 mm 3 m/S 762 mmHg 79%
    22:00 +8°C° 0 mm 3 m/S 762 mmHg 80%
    23:00 +7°C° 0 mm 3 m/S 762 mmHg 80%

    23 Oktober, Montag

    Zeit Temperatur Niederschläge Wind Luftdruck Luftfeuchtigkeit
    00:00 +7°C° 0 mm 3 m/S 763 mmHg 81%
    01:00 +7°C° 0 mm 3 m/S 763 mmHg 81%
    02:00 +7°C° 0 mm 3 m/S 763 mmHg 81%
    03:00 +7°C° 0 mm 3 m/S 763 mmHg 81%
    04:00 +7°C° 0 mm 3 m/S 763 mmHg 81%
    05:00 +7°C° 0 mm 3 m/S 763 mmHg 82%
    06:00 +7°C° 0 mm 3 m/S 764 mmHg 83%
    07:00 +8°C° 0 mm 3 m/S 764 mmHg 80%
    08:00 +8°C° 0 mm 4 m/S 764 mmHg 77%
    09:00 +11°C° 0 mm 4 m/S 764 mmHg 74%
    10:00 +12°C° 0 mm 4 m/S 764 mmHg 70%
    11:00 +13°C° 0 mm 4 m/S 764 mmHg 66%
    12:00 +14°C° 0 mm 4 m/S 763 mmHg 62%
    13:00 +14°C° 0 mm 4 m/S 763 mmHg 63%
    14:00 +14°C° 0 mm 4 m/S 763 mmHg 65%
    15:00 +14°C° 0 mm 3 m/S 763 mmHg 66%
    16:00 +13°C° 0 mm 3 m/S 763 mmHg 71%
    17:00 +12°C° 0 mm 3 m/S 763 mmHg 75%
    18:00 +11°C° 0 mm 3 m/S 763 mmHg 80%
    19:00 +10°C° 0 mm 3 m/S 763 mmHg 80%
    20:00 +10°C° 0 mm 3 m/S 763 mmHg 81%
    21:00 +10°C° 0 mm 3 m/S 763 mmHg 82%
    22:00 +10°C° 0 mm 3 m/S 763 mmHg 81%
    23:00 +10°C° 0 mm 3 m/S 763 mmHg 81%
    Mehr zeigen